Location: Caltech
(34.1382°N, 118.1253°W)
Time: 21:03:09
(UTC-07:00)

ITAMSAT 1 - Visible Passes

Search period start: 14 September 2014 00:00
Search period end: 24 September 2014 00:00
Orbit: 785 x 798 km, 98.7° (Epoch: 14 September)

Date Brightness Start Highest point End Pass type
(mag) Time Alt. Az. Time Alt. Az. Time Alt. Az.
14 Sep 10.4 02:49:00 10° NNE 02:49:42 14° NNE 02:49:42 14° NNE visible
14 Sep 9.9 04:30:04 10° NNW 04:30:27 11° NNW 04:30:27 11° NNW visible
15 Sep 9.8 03:59:51 10° N 04:00:54 15° NNW 04:00:54 15° NNW visible
16 Sep 10.0 03:30:17 10° N 03:31:21 16° N 03:31:21 16° N visible
17 Sep 10.3 03:01:09 10° NNE 03:01:48 14° NNE 03:01:48 14° NNE visible
18 Sep 10.0 04:12:26 10° NNW 04:13:00 12° NNW 04:13:00 12° NNW visible
19 Sep 10.0 03:42:40 10° N 03:43:27 14° N 03:43:27 14° N visible
20 Sep 10.3 03:13:21 10° NNE 03:13:54 13° NNE 03:13:54 13° NNE visible
22 Sep 10.1 03:55:06 10° N 03:55:32 12° N 03:55:32 12° N visible
23 Sep 10.3 03:25:37 10° N 03:25:59 12° N 03:25:59 12° N visible
